Location: Puerto Pe�asco
(31.3170°N, 113.5330°W)
Time: 13:56:41
(UTC-07:00)

Daily predictions for brighter satellites

Satellite Brightness Start Highest point End
(mag) Time Altitude Azimuth Time Altitude Azimuth Time Altitude Azimuth
H-2A R/B (2) 3.5 19:16:13 10° WSW 19:19:22 30° S 19:28:03 10° SE
Cosmos 1331 Rocket 4.1 19:22:10 10° SSW 19:27:27 87° WNW 19:32:47 10° NNE
Meteor 2-10 4.5 19:22:04 10° S 19:27:47 80° W 19:33:24 10° N
Cosmos 2227 Rocket 3.0 19:23:49 10° NNW 19:29:20 56° WSW 19:34:49 10° S
GPS 2-04 Rocket1 2.5 19:28:23 10° WNW 19:31:55 72° SSW 19:35:37 10° ESE
SL-16 R/B 3.2 19:28:42 10° SSE 19:33:14 25° ESE 19:37:46 10° NE
Cosmos 2082 4.3 19:27:58 10° NNW 19:33:31 61° WSW 19:39:02 10° S
ATLAS CENTAUR R/B 2.4 19:31:04 10° NNW 19:33:44 42° ENE 19:40:01 10° SE
Hubble Space Telescope 2.9 19:31:05 10° WSW 19:33:50 17° SSW 19:36:34 10° SSE
USA 186 3.6 19:34:51 10° E 19:35:49 11° ENE 19:36:48 10° NE
HJ-1C 3.6 19:33:13 10° SSE 19:36:35 56° ENE 19:39:58 10° N
FengYun 1-2 T 4.4 19:31:21 10° SSE 19:36:54 63° ENE 19:42:29 10° N
Cosmos 1707 Rocket 4.1 19:34:24 10° SSE 19:38:32 38° E 19:42:39 10° NNE
Nadezhda 4 Rocket 4.2 19:34:55 10° N 19:41:04 55° E 19:47:14 10° SSE
Cosmos 1242 Rocket 4.3 19:40:11 10° SSW 19:43:38 38° W 19:47:04 10° N
Helios 1B rocket 3.6 19:40:29 10° NE 19:43:46 23° E 19:47:02 10° SSE
Cosmos 1634 Rocket 4.5 19:38:05 10° SSE 19:43:51 39° E 19:49:38 10° NNE
ALOS 2.4 19:41:33 10° S 19:46:13 81° WSW 19:50:54 10° NNW
Milstar 3 3.1 19:37:11 10° W 19:46:38 72° S 19:53:09 11° E
Sakura Rocket 4.4 19:45:41 10° SSW 19:48:21 18° SSE 19:50:45 12° ESE
Cosmos 1092 Rocket 4.4 19:44:48 10° N 19:50:52 46° E 19:56:54 10° SSE
Resurs 1-3 3.7 19:52:36 10° SSE 19:56:53 56° ENE 20:01:10 10° N
Gblst 52 Del rocket 4.3 19:53:15 10° NW 19:59:02 61° NE 20:03:26 16° ESE
Cosmos 1408 4.2 19:58:51 10° NE 20:01:15 16° ENE 20:01:58 16° E
Cosmos 1869 Rocket 3.6 19:57:25 10° N 20:01:51 60° E 20:06:15 10° SSE
Atlas Centaur 2 3.0 20:00:49 10° SW 20:07:16 51° SSE 20:14:12 13° E
SL-8 R/B 3.7 20:03:37 10° NW 20:08:28 85° SW 20:11:58 19° SE
Cosmos 1455 2.8 20:05:33 10° SSW 20:09:18 60° W 20:13:03 10° N
Cosmos 2242 Rocket 4.0 20:06:10 10° SSE 20:10:25 42° E 20:14:40 10° NNE
BREEZE-M DEB (TANK) 3.9 20:08:31 10° WNW 20:11:13 42° SW 20:16:56 11° SSE
Helios 1A 3.4 20:13:13 20° SE 20:15:46 42° ENE 20:19:47 10° N
Cosmos 1869 3.2 20:18:56 10° S 20:22:51 85° W 20:26:48 10° N
Cosmos 2279 Rocket 4.2 20:18:59 10° SSE 20:24:57 50° E 20:30:56 10° NNE
CZ-4B DEB 3.4 20:26:45 34° ENE 20:26:45 34° ENE 20:29:27 10° N
DELTA 2 R/B (1) 3.6 20:21:40 10° WNW 20:27:18 85° NNE 20:30:21 28° ESE
Resurs 01 Rocket 2.5 20:23:50 10° S 20:28:08 50° W 20:32:27 10° NNW
Cosmos 2195 Rocket 4.4 20:22:29 10° N 20:28:33 62° E 20:33:22 17° SSE
Spot 2 Rocket 4.0 20:23:39 10° S 20:28:41 61° WSW 20:33:43 10° NNW
Meteor 2-20 4.4 20:23:47 10° N 20:29:55 76° E 20:35:38 12° S
Cosmos 1354 Rocket 4.5 20:25:39 10° N 20:30:38 42° ENE 20:32:34 30° ESE
YAOGAN 6 4.3 20:31:23 19° ENE 20:31:23 19° ENE 20:33:27 10° NNE
Spot 1 4.5 20:27:08 19° SSE 20:30:46 68° ENE 20:35:53 10° N
OAO 3 Rocket 3.7 20:26:19 10° W 20:31:08 57° N 20:34:27 20° ENE
BREEZE-M DEB (TANK) 4.5 20:27:40 10° WSW 20:31:30 52° NNW 20:39:12 10° NE
Cosmos 1892 4.5 20:29:03 10° NNW 20:32:27 32° W 20:35:51 10° SSW
Meteor 1-29 2.9 20:34:14 10° N 20:37:42 82° WNW 20:40:29 15° SSW
CZ-3B DEB 2.7 20:45:01 10° WNW 20:47:04 16° WSW 20:47:29 16° SW
Cosmos 2180 Rocket 4.5 20:41:33 13° S 20:47:14 65° E 20:53:31 10° NNE
Cosmos 1933 3.2 20:47:16 57° SE 20:47:43 62° E 20:51:42 10° NNE
Meteor 2-10 Rocket 4.1 20:46:40 37° SE 20:48:07 44° E 20:53:35 10° NNE
Envisat 2.9 20:45:59 29° SSE 20:48:36 85° ENE 20:53:42 10° N
Cosmos 2322 Rocket 2.7 20:43:39 10° SSW 20:49:10 60° WNW 20:54:44 10° NNE
Cosmos 220 Rocket 3.9 20:44:51 10° NNW 20:49:18 71° ENE 20:50:11 54° SE
Cosmos 2263 Rocket 2.9 20:44:27 10° N 20:49:25 33° ENE 20:50:08 31° E
Cosmos 1315 Rocket 4.2 20:45:58 10° NNW 20:49:44 38° W 20:52:54 13° SSW
OTV 4 2.4 20:49:31 10° W 20:51:16 22° WSW 20:51:16 22° WSW
Cosmos 2360 Rocket 2.1 20:57:15 35° SSE 20:59:29 58° ESE 21:05:02 10° NNE
Cosmos 1825 2.4 20:58:05 10° NNW 21:01:52 67° W 21:02:11 63° SW
USA 186 4.3 21:05:34 12° WSW 21:06:18 13° W 21:07:40 10° WNW
Cosmos 2322 3.7 21:07:11 57° ESE 21:07:31 58° ESE 21:13:07 10° NNE
SEDSat Delta rocket 3.5 21:03:51 10° W 21:09:19 87° S 21:10:43 55° E
USA 234 3.3 21:10:15 47° ESE 21:12:10 70° NE 21:18:40 10° NW
Cosmos 2026 Rocket 4.4 21:09:08 10° NNW 21:15:13 59° W 21:18:59 23° SSW
Cosmos 1862 3.7 21:12:25 10° NNW 21:16:03 63° NW 21:16:03 63° NW
SL-16 R/B 3.8 21:11:58 10° SW 21:17:04 34° WNW 21:22:12 10° N
Cosmos 1939 Rocket 3.9 21:20:15 41° WSW 21:20:37 42° W 21:24:28 10° NNW
ERBS 4.1 21:17:22 10° NW 21:19:24 33° NW 21:19:24 33° NW
Lacrosse 4 Rocket 1.8 21:17:42 10° NNW 21:21:30 65° NW 21:21:30 65° NW
ERS-1 Rocket 2.8 21:22:09 83° NE 21:22:09 83° NE 21:27:07 10° N
MetOp-B 4.4 21:23:30 52° NE 21:23:30 52° NE 21:28:10 10° N
Cosmos 1733 Rocket 3.8 21:24:01 10° NNW 21:28:18 48° W 21:28:29 47° WSW
ATLAS 5 CENTAUR R/B 3.2 21:23:39 10° NNW 21:29:19 38° NE 21:29:19 38° NE
ARGOS 3.8 21:34:29 44° NNE 21:34:29 44° NNE 21:38:30 10° N
Skynet4D Del rocket 4.3 21:25:22 10° W 21:33:23 64° S 21:33:55 62° SSE
SeaSat 1 3.6 21:36:49 33° NNE 21:36:49 33° NNE 21:40:05 10° N
Meteor 1-26 Rocket 4.4 21:40:50 64° WSW 21:41:23 69° W 21:47:07 10° N
Terra 4.3 21:48:57 12° NNE 21:48:57 12° NNE 21:49:32 10° NNE
USA 229 DEB 4.0 21:49:32 10° SW 21:56:16 65° WNW 22:03:07 10° NNE
USA 229 3.9 21:49:36 10° SW 21:56:21 65° WNW 22:03:13 10° NNE
Atlas Centaur 2 2.8 21:49:18 10° W 21:56:51 82° S 21:56:51 82° S
Cosmos 2266 Rocket 4.2 21:57:05 10° N 22:02:49 69° NW 22:02:49 69° NW
BREEZE-M DEB (TANK) 4.3 21:51:53 10° NW 22:05:43 75° W 22:05:43 75° W
H-2A R/B 3.7 22:14:05 28° N 22:14:05 28° N 22:16:22 10° N
MOS 1-B Rocket 4.5 22:13:24 56° NW 22:13:24 56° NW 22:17:55 10° NNW
Milstar 3 4.1 22:23:16 10° W 22:26:44 29° WSW 22:26:44 29° WSW
COSMOS 2428 4.3 22:34:03 30° N 22:34:03 30° N 22:37:05 10° N
Cosmos 2263 Rocket 4.0 22:28:37 10° NW 22:31:52 23° W 22:31:52 23° W
ATLAS 5 CENTAUR R/B 4.4 23:08:30 10° NW 23:10:52 21° WNW 23:10:52 21° WNW
